Location: Cheching
(60.0667°N, 164.2167°W)
Time: 22:04:33
(UTC+00:00)

NOAA 15 - Pass Details

Date: 26 January 2021
Orbit: 798 x 812 km, 98.7° (Epoch: 07 March)

Event Time Altitude Azimuth Distance (km) Brightness Sun altitude
Rises 05:15:11 0° 162° (SSE) 3,306 7.7 -16.8°
Reaches altitude 10° 05:17:30 10° 163° (SSE) 2,381 7.0 -17.1°
Maximum altitude 05:22:47 83° 252° (WSW) 820 4.6 -17.7°
Drops below altitude 10° 05:28:07 10° 341° (NNW) 2,407 7.2 -18.4°
Sets 05:30:29 0° 342° (NNW) 3,344 8.0 -18.7°
